Northeast Philadelphia, PA

3:17 AM EDT on July 23, 2017 (GMT -0400)
Northeast Philadelphia

Weather History for KPNE - October, 2013

Change the Weather History Date:

Thursday, October 31, 2013

  Actual Average Record
Temperature  
Mean Temperature 60 °F -  
Max Temperature 71 °F 58 °F 75 °F (2004)
Min Temperature 48 °F 39 °F 30 °F (2011)
Degree Days  
Heating Degree Days 6    
Growing Degree Days 10 (Base 50)    
Moisture  
Dew Point 54 °F    
Average Humidity 87    
Maximum Humidity 100    
Minimum Humidity 61    
Precipitation  
Precipitation 0.01 in - - ()
Sea Level Pressure  
Sea Level Pressure 30.11 in    
Wind  
Wind Speed 2 mph (South)    
Max Wind Speed 9 mph    
Max Gust Speed 20 mph    
Visibility 4 miles    
Events Fog , Rain    
Averages and records for this station are not official NWS values.
T = Trace of Precipitation, MM = Missing Value Source: NWS Daily Summary

Daily Weather History Graph

Daily Weather History Graph

Search for Another Location

Airport or City:

Trip Planner

Search our weather history database for the weather conditions in past years. The results will help you decide how hot, cold, wet, or windy it might be!

Date:

Astronomy

Oct. 31, 2013 Rise Set
Actual Time 7:28 AM EDT 5:58 PM EDT
Civil Twilight 7:00 AM EDT 6:26 PM EDT
Nautical Twilight 6:28 AM EDT 6:58 PM EDT
Astronomical Twilight 5:56 AM EDT 7:29 PM EDT
Moon 4:15 AM EDT (10/31) 4:15 PM EDT (10/31)
Length of Visible Light 11h 26m
Length of Day
10h 30m
Waning Crescent, 10% of the Moon is Illuminated
Oct 31
Waning Crescent
Nov 3
New
Nov 10
First Quarter
Nov 17
Full
Nov 25
Last Quarter

Hourly Weather History & Observations

Time (EDT) Temp. Dew Point Humidity Pressure Visibility Wind Dir Wind Speed Gust Speed Precip Events Conditions
12:54 AM 55.9 °F 53.1 °F 90% 30.23 in 6.0 mi East 4.6 mph - N/A   Overcast
1:54 AM 54.0 °F 52.0 °F 93% 30.22 in 5.0 mi Calm Calm - N/A   Mostly Cloudy
2:11 AM 53.6 °F 51.8 °F 94% 30.21 in 3.0 mi Calm Calm - N/A   Scattered Clouds
2:17 AM 53.6 °F 51.8 °F 94% 30.21 in 1.8 mi Calm Calm - N/A   Mostly Cloudy
2:28 AM 53.6 °F 51.8 °F 94% 30.21 in 0.2 mi Calm Calm - N/A Fog Fog
2:54 AM 52.0 °F 50.0 °F 93% 30.22 in 0.8 mi Calm Calm - N/A   Overcast
2:57 AM 51.8 °F 51.8 °F 100% 30.22 in 1.0 mi Calm Calm - N/A   Overcast
3:08 AM 51.8 °F 50.0 °F 94% 30.22 in 3.0 mi Calm Calm - N/A   Overcast
3:20 AM 53.6 °F 51.8 °F 94% 30.23 in 3.0 mi Calm Calm - N/A   Overcast
3:49 AM 51.8 °F 50.0 °F 94% 30.21 in 3.0 mi Calm Calm - N/A   Overcast
3:54 AM 51.1 °F 50.0 °F 96% 30.21 in 3.0 mi Calm Calm - N/A   Overcast
4:04 AM 51.8 °F 48.2 °F 88% 30.20 in 2.5 mi Calm Calm - N/A   Overcast
4:13 AM 51.8 °F 48.2 °F 88% 30.19 in 3.0 mi Calm Calm - N/A   Mostly Cloudy
4:20 AM 50.0 °F 48.2 °F 94% 30.19 in 1.8 mi Calm Calm - N/A   Scattered Clouds
4:54 AM 51.1 °F 50.0 °F 96% 30.18 in 2.0 mi Calm Calm - N/A   Partly Cloudy
5:08 AM 50.0 °F 48.2 °F 94% 30.17 in 1.5 mi Calm Calm - N/A   Clear
5:20 AM 48.2 °F 46.4 °F 93% 30.18 in 0.8 mi NNE 3.5 mph - N/A   Scattered Clouds
5:25 AM 50.0 °F 48.2 °F 94% 30.18 in 2.0 mi Calm Calm - N/A   Mostly Cloudy
5:30 AM 48.2 °F 48.2 °F 100% 30.18 in 2.5 mi Calm Calm - N/A   Mostly Cloudy
5:40 AM 51.8 °F 50.0 °F 94% 30.18 in 3.0 mi Calm Calm - N/A   Overcast
5:54 AM 52.0 °F 50.0 °F 93% 30.18 in 4.0 mi Calm Calm - N/A   Overcast
6:37 AM 53.6 °F 51.8 °F 94% 30.17 in 3.0 mi Calm Calm - N/A   Overcast
6:54 AM 53.1 °F 51.1 °F 93% 30.17 in 3.0 mi Calm Calm - N/A   Overcast
7:37 AM 55.4 °F 53.6 °F 94% 30.14 in 2.0 mi ESE 4.6 mph - N/A   Overcast
7:54 AM 55.0 °F 53.1 °F 93% 30.15 in 1.2 mi Calm Calm - N/A   Overcast
8:06 AM 55.4 °F 53.6 °F 94% 30.14 in 0.5 mi SE 4.6 mph - N/A Fog Fog
8:44 AM 55.4 °F 55.4 °F 100% 30.17 in 1.0 mi WSW 3.5 mph - N/A   Overcast
8:54 AM 57.0 °F 55.0 °F 93% 30.18 in 1.5 mi WSW 4.6 mph - N/A   Overcast
9:16 AM 57.2 °F 55.4 °F 94% 30.16 in 2.0 mi Calm Calm - N/A   Overcast
9:37 AM 57.2 °F 55.4 °F 94% 30.15 in 3.0 mi Calm Calm - N/A   Overcast
9:46 AM 59.0 °F 55.4 °F 88% 30.14 in 3.0 mi SSE 4.6 mph - N/A   Overcast
9:54 AM 59.0 °F 55.9 °F 90% 30.14 in 3.0 mi Calm Calm - N/A   Overcast
10:31 AM 60.8 °F 55.4 °F 82% 30.12 in 5.0 mi SSE 4.6 mph - N/A   Haze
10:54 AM 63.0 °F 57.0 °F 81% 30.11 in 5.0 mi SSE 5.8 mph - N/A   Haze
11:54 AM 64.0 °F 57.9 °F 80% 30.10 in 6.0 mi Calm Calm - N/A   Haze
12:54 PM 66.9 °F 59.0 °F 76% 30.04 in 7.0 mi Variable 3.5 mph - N/A   Mostly Cloudy
1:54 PM 70.0 °F 57.9 °F 65% 30.01 in 10.0 mi SW 9.2 mph - N/A   Mostly Cloudy
2:54 PM 70.0 °F 59.0 °F 68% 30.01 in 9.0 mi SSW 6.9 mph - N/A   Clear
3:54 PM 71.1 °F 59.0 °F 66% 29.99 in 10.0 mi SSW 6.9 mph - N/A   Clear
4:54 PM 71.1 °F 57.0 °F 61% 29.96 in 10.0 mi Variable 6.9 mph 19.6 mph N/A   Mostly Cloudy
5:54 PM 70.0 °F 55.9 °F 61% 29.94 in 10.0 mi South 9.2 mph 19.6 mph 0.00 in   Mostly Cloudy
6:54 PM 70.0 °F 57.0 °F 63% 29.94 in 10.0 mi Variable 6.9 mph - N/A   Scattered Clouds
7:54 PM 68.0 °F 57.0 °F 68% 29.93 in 10.0 mi Variable 5.8 mph - N/A   Clear
8:54 PM 66.9 °F 55.9 °F 68% 29.91 in 10.0 mi SSW 5.8 mph - N/A   Clear
9:54 PM 66.0 °F 57.0 °F 73% 29.90 in 9.0 mi SSW 5.8 mph - 0.00 in Rain Light Rain
10:54 PM 64.0 °F 60.1 °F 87% 29.87 in 10.0 mi SSW 4.6 mph - 0.01 in   Mostly Cloudy
11:31 PM 64.4 °F 60.8 °F 88% 29.85 in 10.0 mi Variable 3.5 mph - 0.00 in   Mostly Cloudy
11:54 PM 64.9 °F 62.1 °F 90% 29.83 in 10.0 mi SSW 4.6 mph - 0.00 in   Mostly Cloudy